Regional Weather Roundup
Issued by NWS Upton, NY

Current Version | Previous Version | Text Only | Print | Product List | Glossary On
Versions: 1 2 3 4 5 6 7 8 9 10 11 12 13 14 15 16 17 18 19 20 21 22 23 24 25 26 27 28 29 30 31 32 33 34 35 36 37 38 39 40 41 42 43 44 45 46 47 48 49 50
435
ASUS41 KOKX 292205
RWROKX

REGIONAL WEATHER ROUNDUP
NATIONAL WEATHER SERVICE NEW YORK NY
600 PM EDT SUN MAY 29 2016

NOTE: "FAIR" INDICATES FEW OR NO CLOUDS BELOW 12,000 FEET WITH NO
SIGNIFICANT WEATHER AND/OR OBSTRUCTIONS TO VISIBILITY.

NYZ071-072-176-178-NJZ106-104-292300-
NEW YORK CITY METRO AREA


CITY           SKY/WX    TMP DP  RH WIND       PRES   REMARKS
CENTRAL PARK   SUNNY     76  64  66 S9G22     30.09F
LAGUARDIA APRT PTSUNNY   76  71  85 S20       30.06F
KENNEDY INTL   PTSUNNY   71  67  87 SE8       30.09F FOG
NEWARK/LIBERTY CLOUDY    81  66  60 SE7       30.05F
BRNX BOT. GARD   N/A     73  64  73 S8        30.09F
TETERBORO      SUNNY     81  62  52 SE10      30.04F
$$

NYZ177-179-078>081-292300-
LONG ISLAND NEW YORK

CITY           SKY/WX    TMP DP  RH WIND       PRES   REMARKS
FARMINGDALE    CLOUDY    71  66  84 SE9       30.10S
ISLIP          FOG       70  67  90 S8        30.10F VSB 1/4
SHIRLEY        CLOUDY    72  68  87 S6        30.11F
RIVERHEAD        N/A     72  68  88 SW3       30.09F
WESTHAMPTON    CLOUDY    69  67  93 S3        30.13S FOG
EAST HAMPTON   CLOUDY    67  64  91 S5        30.12S FOG
MONTAUK POINT    N/A     65  63  93 VRB5      30.14S
$$

NYZ052-065-067-292300-
HUDSON VALLEY

CITY           SKY/WX    TMP DP  RH WIND       PRES   REMARKS
WHITE PLAINS   SUNNY     77  65  66 S12G18    30.08S
NEWBURGH       MOSUNNY   81  63  54 S9G16     30.05F
MONTGOMERY     MOSUNNY   84  65  52 S14       30.02F
POUGHKEEPSIE   PTSUNNY   85  62  46 SE9       30.01F
ALBANY         CLOUDY    76  68  76 N7        30.01F THUNDER
$$

NJZ001-105-106-008-010-013-015-019>022-104-292300-
NEW JERSEY

CITY           SKY/WX    TMP DP  RH WIND       PRES   REMARKS
NEWARK/LIBERTY CLOUDY    81  66  60 SE7       30.05F
TETERBORO      SUNNY     81  62  52 SE10      30.04F
CALDWELL       SUNNY     83  65  54 S13       30.04F
MORRISTOWN     CLOUDY    86  64  48 SE8       30.04S
SOMERVILLE     SUNNY     87  54  32 SW3       30.02F
SUSSEX         MOSUNNY   86  57  37 VRB6      30.04S
ANDOVER          N/A     85  54  34 SW7       30.05F
TRENTON        MOSUNNY   85  63  47 SW8G16    30.04S
MILLVILLE      CLOUDY    76  69  79 VRB5      30.08F
ATLANTIC CITY  MOSUNNY   78  69  73 S13       30.09S
WRIGHTSTOWN    PTSUNNY   81  69  65 S9        30.03S
TOMS RIVER     PTSUNNY   81  64  57 S13G18    30.07S
BELMAR         MOSUNNY   80  69  69 S10G17    30.08S
$$

PAZ047>061-062-071-292300-
EASTERN PENNSYLVANIA

CITY           SKY/WX    TMP DP  RH WIND       PRES   REMARKS
PHILADELPHIA   CLOUDY    81  67  62 S13       30.07R
ALLENTOWN      SUNNY     87  54  32 S8        30.04F
SCRANTON       MOSUNNY   84  59  42 VRB6      30.04F
$$

CTZ002-004>006-009-010-012-RIZ004-006-007-MAZ004-011-015-292300-
SOUTHERN NEW ENGLAND
 IN CT

CITY           SKY/WX    TMP DP  RH WIND       PRES   REMARKS
BRADLEY INTL   PTSUNNY   84  60  44 S14       30.05S
HARTFORD       MOSUNNY   84  60  44 S14       30.06S
DANBURY        MOSUNNY   79  52  38 S9G18     30.08F
WTRBRY/OXFORD  PTSUNNY   79  55  44 S14       30.10F
BRIDGEPORT     CLOUDY    75  67  76 S13       30.09S
MERIDEN        MOSUNNY   80  59  48 S12       30.08S
NEW HAVEN      PTSUNNY   74  66  76 S10       30.09F
CHESTER        FAIR      75  66  73 S9        30.11S
GROTON         MOSUNNY   68  66  93 S9        30.11S
WILLIMANTIC    SUNNY     83  59  44 S10       30.08F

 IN RI

CITY           SKY/WX    TMP DP  RH WIND       PRES   REMARKS
PROVIDENCE     MOSUNNY   75  60  59 SE9       30.12F
BLOCK ISLAND   LGT RAIN  65  63  93 S9        30.14S VSB 1/4
WESTERLY       MOSUNNY   69  61  75 S7        30.13S

 IN MA

CITY           SKY/WX    TMP DP  RH WIND       PRES   REMARKS
BOSTON         CLOUDY    56  52  86 NE9       30.18F
WORCESTER      CLOUDY    60  55  83 NE10      30.15F
WESTFIELD      SUNNY     77  63  61 NE10      30.06F
PROVINCETOWN   CLOUDY    56  54  93 N6        30.17F
NANTUCKET      CLOUDY    65  59  81 SW8       30.15F
$$

ANZ330-335-338-340-345-350-353-355-292300-
COASTAL MARINE OBSERVATIONS


STATION/POSITION TIME  SKY/WX   TEMP    WIND        PRES    VSBY  WAVE
                                AIR SEA DIR/SP/G                  HT/PER
                 (UTC)          (F)     (DEG/KT/KT) (MB)    (MI)  (FT/S)
NY HARB ENTRANCE 2150            62 58  160/ 12/ 12 1018.0          2/ 8
20S FIRE ISLAND  2050            63 62  170/  8/  8 1019.1          2/ 8
GREAT SOUTH BAY  2100            66 71  160/  8/ 10   N/A
23 SSW MONTAUK P 2150            61 60  160/  6/  6 1019.5          2/ 8
15 E BARNEGAT LI 2122               62                N/A           3/ 8
HUDSON CANYON    2050            64 63              1020.0          3/ 8
KINGS POINT      2100            71 63              1018.2
EXECUTION ROCKS  NOT AVBL
CENTRAL LI SOUND 2100            70     180/ 10/ 12   N/A           1/ 2
EASTERN LI SOUND 2100            60 55  150/  6/  8   N/A
ROBBINS REEF     2100            68     170/ 16/ 19 1017.2
$$


>>>>>>>>>>>>>>>>>>>>>>>>>>>> KEY <<<<<<<<<<<<<<<<<<<<<<<<<<<
>                                                          <
>     SKY/WX - SKY CONDITION/PRESENT WEATHER               <
>     TMP    - TEMPERATURE IN FAHRENHEIT                   <
>     DP     - DEWPOINT IN FAHRENHEIT                      <
>     RH     - RELATIVE HUMIDITY IN PERCENT                <
>     WIND   - DIRECTION AND SPEED IN MPH                  <
>     PRES   - MEAN SEA LEVEL PRESSURE IN INCHES OF HG     <
>     WCI    - WIND CHILL INDEX                            <
>     VSB    - VISIBILITY IN MILES                         <
>     HX     - HEAT INDEX                                  <
>     TC     - TEMPERATURE IN CELSIUS                      <
>     VRB    - VARIABLE WIND DIRECTION                     <
>                                                          <
>>>>>>>>>>>>>>>>>>>>>>>>>>>> KEY <<<<<<<<<<<<<<<<<<<<<<<<<<<






USA.gov is the U.S. government's official web portal to all federal, state and local government web resources and services.